SKYSAT-C7 (42991 NORAD) Tracking and Keplerian Element Data

This shows tracking and keplerian element data for the satellite.

Feedback or suggestion? Click here.




ElementValue
Catalog42991
NameSKYSAT-C7
Epoch Orbit21767
Epoch Day268.57901298
Epoch Year2021
RAAN24.3558
Inclination97.2746
Eccentricity6.81E-05
Argument of Perigee58.1833
Mean Anonmoly301.948
Mean Motion15.40526091
Decay Rate5.495E-05
L11 42991U 17068E 21268.57901298 .00005495 00000-0 13745-3 0 9993
L22 42991 97.2746 24.3558 0000681 58.1833 301.9480 15.40526091217673

Live tracking and technical data element details for SKYSAT-C7 (NORAD 42991). SKYSAT-C7 can be tracked NOW for your location showing map with azimuth and elevation plus other details from your city location.

Track the satellite on the map from your city or location and see movement details for azimuth, elevation, latitude, longitude, range, height, and movement on the map or in text.







IsCatalogInMostPopularTable: catalog: 42991, numindb: 559
Update: records affected: 1



GetName: 42991 SKYSAT-C7

Hit Count: updated at: Mon, 27 Sep 2021 00:40:56 GMT